Weather History for Manhattan, KS

Change the Weather History Date:

Saturday, July 27, 2013

  Actual Average Record
Temperature  
Mean Temperature 63 °F 79 °F  
Max Temperature 70 °F 92 °F 109 °F (2011)
Min Temperature 56 °F 67 °F 54 °F (2004)
Degree Days  
Heating Degree Days 2 0  
Month to date heating degree days 2 0  
Since 1 June heating degree days 11 11  
Since 1 July heating degree days 2 0  
Cooling Degree Days 0 14  
Month to date cooling degree days 371 379  
Year to date cooling degree days 825 749  
Since 1 June cooling degree days 689 649  
Growing Degree Days 12 (Base 50)    
Moisture  
Dew Point 60 °F    
Average Humidity 85    
Maximum Humidity 100    
Minimum Humidity 70    
Precipitation  
Precipitation 0.21 in 0.12 in 0.21 in (2013)
Month to date precipitation 1.86 3.51  
Year to date precipitation 14.65 19.80  
Sea Level Pressure  
Sea Level Pressure 30.09 in    
Wind  
Wind Speed 0 mph (NNW)    
Max Wind Speed 6 mph    
Max Gust Speed 8 mph    
Visibility 8 miles    
Events Rain , Thunderstorm    
T = Trace of Precipitation, MM = Missing Value Source: NWS Daily Summary

Daily Weather History Graph

Daily Weather History Graph

Search for Another Location

Airport:

Trip Planner

Search our weather history database for the weather conditions in past years. The results will help you decide how hot, cold, wet, or windy it might be!

Date:

Astronomy

Jul. 27, 2013 Rise Set
Actual Time 6:22 AM CDT 8:42 PM CDT
Civil Twilight 5:52 AM CDT 9:13 PM CDT
Nautical Twilight 5:15 AM CDT 9:50 PM CDT
Astronomical Twilight 4:34 AM CDT 10:31 PM CDT
Moon 11:34 PM CDT (7/27) 12:01 PM CDT (7/27)
Length of Visible Light 15h 20m
Length of Day
14h 19m
Waning Gibbous, 70% of the Moon is Illuminated
Jul 27
Waning Gibbous
Jul 29
Last Quarter
Aug 6
New
Aug 14
First Quarter
Aug 20
Full

Hourly Weather History & Observations

Time (CDT) Temp. Dew Point Humidity Pressure Visibility Wind Dir Wind Speed Gust Speed Precip Events Conditions
12:52 AM 64.0 °F 57.0 °F 78% 30.10 in 10.0 mi North 4.6 mph - N/A   Clear
1:52 AM 63.0 °F 57.0 °F 81% 30.10 in 10.0 mi Calm Calm - N/A   Clear
2:52 AM 59.0 °F 57.0 °F 93% 30.11 in 10.0 mi Calm Calm - N/A   Clear
3:52 AM 57.9 °F 57.0 °F 97% 30.07 in 10.0 mi Calm Calm - N/A   Clear
4:52 AM 55.9 °F 55.9 °F 100% 30.07 in 10.0 mi Calm Calm - N/A   Clear
5:52 AM 57.0 °F 57.0 °F 100% 30.09 in 10.0 mi Calm Calm - N/A   Clear
6:52 AM 59.0 °F 59.0 °F 100% 30.13 in 4.0 mi Variable 3.5 mph - 0.03 in Rain Rain
7:52 AM 59.0 °F 59.0 °F 100% 30.14 in 10.0 mi Calm Calm - 0.07 in   Scattered Clouds
8:52 AM 60.1 °F 60.1 °F 100% 30.14 in 4.0 mi Calm Calm - 0.03 in Rain Rain
9:02 AM 60.8 °F 60.8 °F 100% 30.14 in 2.5 mi Calm Calm - 0.02 in Rain Rain
9:09 AM 60.8 °F 60.8 °F 100% 30.14 in 4.0 mi Calm Calm - 0.02 in Rain Light Rain
9:52 AM 61.0 °F 61.0 °F 100% 30.13 in 4.0 mi Calm Calm - 0.03 in   Overcast
10:52 AM 62.1 °F 61.0 °F 96% 30.12 in 10.0 mi Calm Calm - 0.01 in Rain Light Rain
11:52 AM 63.0 °F 61.0 °F 93% 30.12 in 3.0 mi Calm Calm - 0.02 in Rain Rain
12:52 PM 64.0 °F 62.1 °F 93% 30.11 in 10.0 mi Calm Calm - 0.01 in   Overcast
1:52 PM 66.0 °F 61.0 °F 84% 30.10 in 10.0 mi Calm Calm - N/A   Overcast
2:52 PM 64.9 °F 63.0 °F 93% 30.09 in 8.0 mi North 3.5 mph - 0.01 in Rain Rain
3:52 PM 64.9 °F 62.1 °F 90% 30.07 in 10.0 mi Calm Calm - 0.00 in   Overcast
4:38 PM 66.2 °F 62.6 °F 88% 30.07 in 10.0 mi Calm Calm - 0.00 in Thunderstorm Overcast
4:52 PM 66.9 °F 62.1 °F 84% 30.06 in 10.0 mi Calm Calm - 0.00 in   Overcast
5:52 PM 68.0 °F 61.0 °F 78% 30.03 in 10.0 mi SW 3.5 mph - N/A   Overcast
6:52 PM 70.0 °F 59.0 °F 68% 30.02 in 10.0 mi Calm Calm - N/A   Scattered Clouds
7:52 PM 66.0 °F 61.0 °F 84% 30.02 in 10.0 mi Calm Calm - N/A   Scattered Clouds
8:52 PM 66.0 °F 64.9 °F 96% 30.02 in 10.0 mi Calm Calm - N/A   Overcast
9:52 PM 64.9 °F 64.0 °F 97% 30.03 in 10.0 mi Calm Calm - N/A   Overcast
10:52 PM 63.0 °F 63.0 °F 100% 30.04 in 10.0 mi Calm Calm - N/A   Mostly Cloudy
11:52 PM 62.1 °F 62.1 °F 100% 30.04 in 10.0 mi Calm Calm - N/A   Mostly Cloudy